FW9268 Weather Reports


Display with metric or nautical units.
time (UTC)temp
F
wind
direction
speed
MPH
gust
MPH
rain 1hr
in
rain 24hr
in
rain mn
in
humidity
%
barometer
mb
20260504044553 54 242 1.0 4.0 0.00 0.00 0.00 37 1002.9
20260504044542 54 242 1.0 4.0 0.00 0.00 0.00 37 1010.7
20260504043052 54 242 1.0 2.0 0.00 0.00 0.00 35 1003.1
20260504043042 54 0 1.0 2.0 0.00 0.00 0.00 35 1010.8
20260504041551 55 242 1.0 3.0 0.00 0.00 0.00 36 1003.3
20260504041540 55 0 1.0 4.0 0.00 0.00 0.00 35 1011.0
20260504040051 55 242 0.0 3.0 0.00 0.00 0.00 35 1003.6
20260504040042 55 242 0.0 3.0 0.00 0.00 0.00 34 1011.3
20260504034550 55 243 0.0 4.0 0.00 0.00 0.00 35 1003.7
20260504034547 55 243 0.0 4.0 0.00 0.00 0.00 34 1011.4
20260504033054 56 244 1.0 8.0 0.00 0.00 0.00 34 1003.8
20260504033036 56 0 1.0 8.0 0.00 0.00 0.00 33 1011.5
20260504031602 55 245 1.0 7.0 0.00 0.00 0.00 33 1011.7
20260504031559 56 244 2.0 8.0 0.00 0.00 0.00 33 1004.0
20260504030051 54 311 0.0 2.0 0.00 0.00 0.00 33 1003.8
20260504030043 54 311 0.0 2.0 0.00 0.00 0.00 32 1011.5
20260504024557 56 311 0.0 0.0 0.00 0.00 0.00 30 1003.9
20260504024542 56 0 0.0 0.0 0.00 0.00 0.00 29 1011.6
20260504023048 56 311 0.0 0.0 0.00 0.00 0.00 31 1003.9
20260504023039 56 0 0.0 0.0 0.00 0.00 0.00 31 1011.7
20260504021552 57 311 0.0 2.0 0.00 0.00 0.00 30 1003.9
20260504021538 57 0 0.0 2.0 0.00 0.00 0.00 30 1011.6
20260504020050 57 311 0.0 1.0 0.00 0.00 0.00 31 1004.0
20260504020039 58 0 0.0 1.0 0.00 0.00 0.00 28 1011.6
20260504014546 58 311 0.0 5.0 0.00 0.00 0.00 28 1004.0
20260504014536 58 0 0.0 5.0 0.00 0.00 0.00 27 1011.6
20260504013054 58 316 0.0 3.0 0.00 0.00 0.00 28 1003.8
20260504013042 58 0 0.0 3.0 0.00 0.00 0.00 29 1011.5
20260504011546 60 316 0.0 3.0 0.00 0.00 0.00 26 1003.9
20260504011539 60 0 0.0 4.0 0.00 0.00 0.00 26 1011.4
20260504010045 62 0 1.0 7.0 0.00 0.00 0.00 23 1011.5
20260504004559 63 308 1.0 8.0 0.00 0.00 0.00 22 1003.6
20260504004538 63 308 2.0 10.0 0.00 0.00 0.00 21 1011.4
20260504003044 64 294 2.0 14.0 0.00 0.00 0.00 22 1003.5
20260504003042 64 294 3.0 17.0 0.00 0.00 0.00 21 1011.3
20260504001546 65 273 4.0 15.0 0.00 0.00 0.00 21 1003.4
20260504000043 66 254 6.0 13.0 0.00 0.00 0.00 22 1003.3
20260504000041 66 307 5.0 13.0 0.00 0.00 0.00 22 1011.1
20260503234541 66 302 4.0 17.0 0.00 0.00 0.00 25 1003.2
20260503233040 67 285 7.0 13.0 0.00 0.00 0.00 25 1003.0
20260503231546 68 327 5.0 17.0 0.00 0.00 0.00 25 1010.8
20260503230038 68 278 8.0 21.0 0.00 0.00 0.00 25 1003.0
20260503230036 68 242 7.0 17.0 0.00 0.00 0.00 24 1010.7
20260503224548 68 315 6.0 16.0 0.00 0.00 0.00 26 1010.9
20260503224538 68 309 4.0 16.0 0.00 0.00 0.00 27 1003.0
20260503223043 68 292 3.0 14.0 0.00 0.00 0.00 26 1010.7
20260503223038 68 236 3.0 12.0 0.00 0.00 0.00 27 1003.0
20260503221537 69 254 5.0 13.0 0.00 0.00 0.00 27 1002.9
20260503220040 68 296 6.0 15.0 0.00 0.00 0.00 28 1010.6
20260503220038 68 296 7.0 15.0 0.00 0.00 0.00 28 1003.0
20260503214543 68 360 7.0 18.0 0.00 0.00 0.00 28 1010.5
20260503214534 68 296 9.0 18.0 0.00 0.00 0.00 28 1002.9
20260503213052 69 309 9.0 18.0 0.00 0.00 0.00 29 1010.6
20260503213035 69 277 11.0 19.0 0.00 0.00 0.00 30 1003.0
20260503211602 68 248 9.0 16.0 0.00 0.00 0.00 28 1010.7
20260503211538 68 251 9.0 16.0 0.00 0.00 0.00 29 1003.0
20260503210039 69 286 5.0 18.0 0.00 0.00 0.00 29 1010.6
20260503210032 68 286 5.0 18.0 0.00 0.00 0.00 30 1003.1
20260503204557 69 303 5.0 12.0 0.00 0.00 0.00 30 1010.7
20260503204531 69 290 6.0 12.0 0.00 0.00 0.00 30 1003.1
20260503203040 68 229 12.0 21.0 0.00 0.00 0.00 30 1010.8
20260503203027 68 289 11.0 21.0 0.00 0.00 0.00 30 1003.3
20260503201540 68 275 5.0 20.0 0.00 0.00 0.00 31 1011.0
20260503201525 68 275 7.0 20.0 0.00 0.00 0.00 32 1003.4
20260503200036 68 258 7.0 16.0 0.00 0.00 0.00 30 1011.3
20260503200022 68 258 7.0 14.0 0.00 0.00 0.00 31 1003.6
20260503194541 68 291 4.0 12.0 0.00 0.00 0.00 35 1011.5
20260503194521 68 291 5.0 12.0 0.00 0.00 0.00 36 1003.7
20260503193040 68 240 7.0 15.0 0.00 0.00 0.00 35 1011.5
20260503193034 68 239 8.0 15.0 0.00 0.00 0.00 36 1003.9
20260503191554 66 248 6.0 11.0 0.00 0.00 0.00 38 1011.6
20260503191517 66 248 6.0 11.0 0.00 0.00 0.00 39 1003.9
20260503190040 65 336 4.0 17.0 0.00 0.00 0.00 39 1011.8
20260503190025 65 346 6.0 14.0 0.00 0.00 0.00 40 1004.1
20260503184536 66 232 4.0 14.0 0.00 0.00 0.00 38 1011.9
20260503184517 66 263 4.0 14.0 0.00 0.00 0.00 39 1004.2
20260503183043 65 220 5.0 16.0 0.00 0.00 0.00 39 1012.0
20260503183012 65 208 6.0 11.0 0.00 0.00 0.00 39 1004.3
20260503181535 65 226 5.0 19.0 0.00 0.00 0.00 45 1012.2
20260503181510 65 228 4.0 19.0 0.00 0.00 0.00 45 1004.5
20260503180039 64 223 6.0 12.0 0.00 0.00 0.00 43 1012.3
20260503180007 64 223 5.0 11.0 0.00 0.00 0.00 42 1004.7
20260503174551 64 240 7.0 14.0 0.00 0.00 0.00 43 1012.4
20260503174504 64 251 8.0 14.0 0.00 0.00 0.00 45 1004.9
20260503173035 64 234 7.0 15.0 0.00 0.00 0.00 41 1012.6
20260503173005 64 226 8.0 15.0 0.00 0.00 0.00 43 1005.1
20260503171601 63 246 4.0 12.0 0.00 0.00 0.00 44 1005.2
20260503171536 62 246 6.0 12.0 0.00 0.00 0.00 42 1012.9
20260503081554 48 0 0.0 0.0 0.00 0.00 0.00 73 1016.4
20260503081540 48 250 0.0 0.0 0.00 0.00 0.00 73 1009.4